Wind_Speed
19 20 20 19 19 18 18 17 17 17 18 18 19 20 20 21 21 21 22 23 22 21 19 18 18 18 17 17 17 16 16 16 15 14 15 14 14 13 12 11 11 10 9
19 19 19 19 18 18 17 17 16 17 17 18 19 19 20 21 22 22 22 22 23 22 21 19 19 18 18 18 18 18 18 17 16 16 16 15 14 14 13 12 11 11 10
19 19 19 18 18 17 17 16 16 16 17 18 19 19 20 21 21 21 22 22 22 23 21 20 19 19 18 18 18 18 18 17 17 17 16 16 15 15 14 13 12 12 11
19 19 18 18 18 17 16 15 15 15 16 17 18 19 20 21 21 21 22 22 22 23 23 22 20 20 19 18 18 18 18 18 18 18 17 17 16 15 15 14 13 13 12
19 18 18 18 18 17 15 14 13 13 14 15 17 19 20 20 21 21 22 23 23 24 23 23 21 20 19 19 18 18 18 18 18 18 18 18 17 16 15 14 13 13 13
18 18 18 17 17 16 14 13 12 11 12 13 15 17 19 20 20 21 22 24 25 25 23 22 22 21 20 19 19 19 18 18 18 19 19 19 18 17 16 16 15 14 13
18 17 17 17 16 15 13 11 10 9 10 11 14 16 17 19 20 21 23 24 26 25 24 22 22 22 20 20 20 19 19 18 18 19 19 19 19 18 17 16 16 15 14
17 17 16 16 15 15 13 11 9 7 8 10 12 15 16 18 18 20 22 23 24 25 24 24 22 22 21 21 21 20 19 19 19 20 20 20 20 19 18 18 17 16 15
16 16 16 16 15 14 12 11 7 5 5 7 10 13 15 17 17 19 21 22 24 25 25 24 24 24 23 21 21 21 20 20 20 20 21 20 20 20 19 19 18 17 17
16 15 15 15 14 13 12 11 7 3 2 5 9 11 14 15 16 18 20 21 23 23 24 25 23 23 23 21 20 21 21 20 20 21 21 21 20 20 20 19 19 19 18
15 15 14 14 13 12 11 10 7 3 0 4 7 10 12 12 15 17 19 20 21 22 23 24 23 22 22 21 21 21 21 20 20 21 21 21 21 20 20 20 20 19 19
15 14 13 13 12 12 10 9 7 4 1 3 6 9 10 12 14 15 17 18 19 20 22 23 23 22 22 21 21 21 21 21 21 22 21 21 21 21 21 20 20 20 20
14 13 12 12 12 11 10 8 6 4 2 2 5 7 8 10 12 14 16 16 17 18 20 21 22 22 23 22 21 21 21 21 21 22 22 22 21 21 21 21 21 21 21
13 13 12 11 11 10 10 8 6 3 2 1 3 5 7 9 11 12 14 15 16 18 20 21 21 22 22 22 22 22 22 21 21 22 22 23 22 22 22 23 23 22 22
12 12 11 11 10 10 9 8 6 4 2 1 2 3 5 7 10 10 12 14 15 17 19 20 21 21 22 22 23 23 23 23 23 23 24 24 24 24 23 23 24 24 24
11 11 11 10 9 9 9 8 6 4 2 1 1 3 4 6 8 10 11 12 13 15 17 18 19 20 20 20 21 22 23 24 24 24 25 25 26 26 26 26 26 26 26
10 10 10 9 8 8 7 7 6 4 2 1 1 2 4 5 7 9 10 11 12 14 16 18 18 19 20 20 21 22 23 24 25 25 26 26 27 27 27 26 27 27 28
11 10 9 9 8 7 6 6 6 4 3 2 1 1 2 4 6 7 9 10 12 13 15 17 19 19 20 21 21 22 22 23 24 25 26 26 26 27 27 28 28 28 29
11 11 10 9 8 7 6 5 5 4 3 2 1 2 2 4 5 6 7 9 10 11 13 15 17 18 19 20 21 22 23 23 24 24 25 25 26 26 27 28 29 29 30
12 12 11 10 8 8 7 6 5 4 3 3 2 2 3 4 5 6 7 8 9 10 12 14 16 17 18 20 21 21 22 23 23 24 24 25 26 27 28 29 30 30 30
14 13 12 11 10 9 8 7 6 5 4 4 4 4 4 4 5 6 7 9 10 10 12 13 14 15 17 18 20 21 22 22 23 24 24 25 26 27 27 28 28 30 31
16 15 14 13 12 11 10 8 7 7 6 6 6 6 5 5 6 7 8 9 9 10 11 13 14 14 15 17 19 20 21 22 23 24 24 25 25 26 27 28 29 30 31
19 17 16 15 14 13 12 10 9 8 8 7 7 7 7 7 7 8 8 9 9 10 11 12 13 14 15 16 17 19 20 21 22 23 24 25 26 27 28 28 30 30 31
22 21 19 18 17 16 15 14 12 11 10 9 9 9 8 8 8 8 9 9 10 10 11 12 13 13 14 15 16 17 18 20 21 22 23 24 25 27 28 28 29 30 31
25 24 22 21 20 19 18 17 15 14 13 12 11 11 10 10 10 10 10 10 10 11 11 12 13 13 14 14 16 17 18 19 20 21 22 23 24 25 26 27 29 30 31
27 27 25 24 23 22 21 20 18 17 16 15 14 13 12 12 12 12 11 11 12 12 12 13 14 14 15 15 16 17 18 19 20 21 22 22 23 24 26 27 28 29 30
Wind_Direction
322 320 316 312 307 301 294 286 278 266 257 250 245 241 236 233 230 226 222 219 217 215 215 214 212 209 207 206 205 204 202 201 200 198 195 193 193 193 191 188 187 185 185
325 323 320 316 311 304 296 287 278 266 256 247 242 238 234 232 227 223 219 216 216 214 213 211 210 206 207 207 207 206 204 204 204 201 198 197 197 197 197 196 194 193 193
327 326 323 319 314 308 300 291 279 268 256 246 239 235 232 228 226 220 218 215 213 211 211 209 210 207 207 206 207 208 207 206 204 202 200 200 200 201 202 201 201 200 201
330 328 326 323 320 313 304 294 282 269 256 245 237 232 228 224 221 217 217 215 212 211 210 210 211 209 207 206 207 208 206 206 205 205 203 202 202 203 205 206 207 206 205
332 331 330 328 325 318 309 300 288 272 255 243 234 228 225 221 218 216 214 212 208 208 208 209 211 210 207 207 207 206 206 207 207 207 207 206 205 206 208 209 209 209 210
334 334 334 332 330 324 316 306 294 276 255 240 231 224 220 217 215 214 212 210 207 207 207 209 209 209 206 206 205 206 208 209 209 209 209 208 208 210 212 213 213 214 217
337 337 337 337 336 332 326 314 299 279 253 236 225 218 214 213 214 213 210 207 206 206 207 208 209 209 207 206 205 206 208 212 211 210 210 210 211 213 214 215 217 219 221
338 339 339 341 341 340 337 328 307 283 249 229 219 213 209 206 208 209 208 204 204 205 208 208 209 209 207 207 207 207 209 211 213 214 211 211 213 215 216 218 219 221 223
340 342 343 344 344 346 346 342 326 292 241 222 212 206 205 205 205 204 203 202 204 205 207 207 209 210 208 208 210 210 211 213 216 215 213 214 215 217 219 220 222 225 228
342 344 345 347 349 350 352 354 349 326 241 205 198 199 198 199 201 202 202 201 202 205 207 206 207 207 208 210 212 213 214 217 218 217 216 216 219 219 221 223 226 228 231
345 345 348 351 353 356 358 2 3 2 263 185 187 190 191 195 198 201 201 201 203 204 204 205 206 207 211 213 214 215 217 220 219 218 218 220 221 221 223 226 228 231 233
347 348 351 355 358 1 1 6 14 25 69 158 181 188 193 196 197 199 200 200 205 206 205 206 207 210 212 214 215 218 220 221 220 220 220 222 224 224 226 230 232 235 238
349 352 354 358 2 6 8 13 18 29 64 146 176 189 195 194 197 199 199 200 205 207 207 207 210 212 214 216 218 220 220 223 222 222 223 224 226 228 230 232 235 238 240
351 355 358 360 3 7 11 15 18 23 46 125 180 194 199 201 201 199 199 200 204 208 209 210 212 214 216 217 220 221 222 223 224 226 227 228 229 231 234 235 238 240 241
349 353 357 358 3 8 13 19 24 28 40 91 174 198 197 200 201 199 198 201 206 209 211 214 216 217 218 220 223 226 226 225 229 230 231 232 233 235 238 240 241 242 243
342 348 354 358 1 6 11 17 21 27 37 42 240 212 196 197 203 200 201 205 209 212 212 215 219 220 221 224 227 227 228 228 231 232 234 236 238 239 241 243 245 245 247
331 337 343 348 354 358 3 7 9 11 10 342 270 203 195 200 202 204 206 208 212 216 218 219 221 222 224 227 227 227 230 232 233 235 237 239 241 242 243 245 247 249 251
320 323 329 333 339 346 351 356 359 1 358 333 272 226 211 208 205 208 210 212 216 221 222 223 223 225 227 228 230 230 232 234 236 239 241 242 243 244 245 247 249 252 253
310 311 315 318 322 328 331 334 339 342 343 334 285 248 229 222 214 212 213 216 221 225 225 225 225 225 228 229 231 232 234 237 239 241 242 243 246 247 247 249 251 253 254
300 302 303 306 307 313 314 313 317 317 307 294 285 260 239 231 226 222 221 224 228 229 228 227 226 226 228 230 231 233 236 238 240 242 245 246 249 251 251 252 253 254 256
290 292 293 294 294 297 299 297 296 296 290 280 273 267 258 244 236 234 234 235 236 233 233 231 231 234 234 235 236 237 239 240 242 244 246 248 251 253 255 256 257 258 258
282 283 284 284 284 284 286 286 286 283 279 273 268 266 260 255 251 246 243 242 243 241 239 238 240 243 243 243 243 243 244 245 247 249 251 254 255 256 257 259 260 260 261
276 276 277 276 276 276 275 275 276 276 273 269 265 264 262 258 255 252 249 246 246 245 242 243 245 247 248 249 248 248 249 250 251 253 255 257 258 260 261 262 263 264 264
272 271 272 272 270 270 269 268 267 267 266 266 264 262 260 259 258 258 255 252 250 248 248 248 250 251 251 252 254 254 254 255 255 256 259 260 261 263 264 265 267 268 268
269 268 267 267 266 265 265 264 261 260 259 259 259 260 258 257 257 257 257 256 254 254 254 254 255 254 254 254 255 257 258 259 260 262 262 264 266 268 269 271 272 272 272
267 265 264 263 263 262 261 260 258 256 255 255 255 254 255 256 256 257 257 257 257 257 257 257 258 258 259 259 260 261 261 263 263 265 266 267 269 271 273 274 275 274 275
Height
5822 5818 5815 5812 5809 5806 5804 5803 5803 5803 5803 5805 5807 5810 5812 5815 5819 5822 5826 5830 5834 5839 5842 5846 5849 5852 5855 5858 5862 5864 5867 5870 5873 5875 5878 5881 5883 5885 5887 5889 5891 5893 5894
5818 5815 5811 5808 5805 5802 5800 5799 5798 5798 5799 5800 5802 5805 5808 5811 5814 5818 5822 5826 5830 5835 5839 5842 5846 5849 5853 5856 5859 5862 5865 5868 5871 5874 5877 5879 5882 5884 5887 5889 5891 5892 5894
5815 5811 5808 5804 5801 5798 5796 5794 5793 5793 5794 5796 5798 5800 5803 5807 5810 5814 5818 5822 5827 5831 5835 5839 5843 5847 5850 5853 5857 5860 5863 5866 5869 5872 5875 5878 5880 5883 5885 5888 5890 5892 5893
5812 5808 5805 5801 5798 5794 5792 5790 5789 5789 5789 5791 5793 5796 5799 5803 5806 5810 5814 5819 5823 5827 5832 5836 5840 5844 5847 5851 5854 5857 5861 5864 5867 5870 5873 5876 5879 5881 5884 5886 5888 5890 5892
5810 5806 5802 5798 5794 5791 5788 5786 5785 5785 5785 5787 5789 5792 5795 5799 5803 5807 5811 5815 5819 5824 5829 5833 5837 5841 5845 5848 5852 5855 5858 5862 5865 5868 5871 5874 5877 5880 5882 5885 5887 5889 5891
5807 5803 5799 5796 5792 5788 5785 5783 5782 5781 5781 5783 5785 5788 5792 5795 5799 5803 5807 5812 5816 5821 5825 5830 5834 5838 5842 5846 5849 5853 5856 5859 5862 5866 5869 5872 5875 5877 5880 5883 5885 5887 5889
5805 5801 5797 5793 5790 5786 5783 5780 5779 5778 5779 5780 5782 5785 5788 5792 5796 5800 5804 5808 5813 5818 5823 5827 5832 5835 5839 5843 5846 5850 5853 5856 5860 5863 5866 5869 5872 5875 5878 5880 5883 5885 5887
5804 5800 5796 5792 5788 5784 5781 5779 5777 5776 5776 5777 5780 5782 5786 5790 5793 5797 5801 5805 5810 5815 5820 5824 5828 5832 5836 5840 5844 5847 5851 5854 5857 5860 5863 5866 5870 5872 5875 5878 5880 5883 5885
5802 5798 5795 5791 5787 5784 5780 5778 5776 5775 5775 5776 5778 5781 5784 5788 5791 5795 5799 5803 5807 5812 5816 5821 5825 5829 5833 5837 5841 5845 5848 5851 5854 5857 5860 5864 5867 5870 5873 5875 5878 5880 5882
5801 5797 5794 5790 5786 5783 5780 5777 5775 5774 5775 5775 5777 5780 5783 5786 5790 5793 5797 5800 5805 5809 5813 5818 5822 5826 5830 5834 5838 5842 5845 5848 5851 5854 5857 5860 5864 5866 5869 5872 5875 5877 5879
5800 5797 5793 5790 5786 5783 5780 5778 5776 5775 5775 5776 5777 5780 5782 5785 5788 5791 5795 5799 5803 5807 5811 5815 5819 5823 5828 5831 5835 5838 5842 5845 5848 5851 5854 5857 5860 5863 5866 5869 5871 5874 5876
5800 5796 5793 5790 5786 5783 5781 5779 5777 5776 5776 5777 5778 5780 5782 5784 5787 5790 5793 5796 5800 5804 5808 5812 5816 5820 5824 5828 5832 5835 5838 5842 5845 5848 5851 5854 5857 5860 5862 5865 5867 5870 5872
5800 5796 5793 5790 5787 5784 5782 5780 5778 5777 5777 5778 5778 5780 5782 5784 5786 5789 5792 5795 5798 5802 5805 5809 5813 5817 5821 5825 5828 5832 5835 5838 5841 5844 5847 5850 5853 5856 5858 5861 5863 5866 5868
5800 5797 5793 5791 5788 5785 5783 5781 5779 5778 5778 5778 5779 5780 5781 5783 5785 5787 5790 5793 5796 5800 5803 5807 5810 5814 5817 5821 5825 5828 5831 5834 5837 5840 5843 5846 5849 5852 5854 5856 5859 5861 5863
5800 5797 5794 5791 5789 5786 5784 5782 5781 5780 5779 5779 5779 5780 5781 5782 5784 5786 5789 5792 5795 5797 5801 5804 5807 5810 5814 5817 5821 5824 5827 5830 5833 5836 5839 5842 5844 5847 5849 5851 5854 5856 5858
5800 5797 5795 5792 5790 5788 5786 5784 5782 5781 5780 5780 5780 5780 5781 5782 5783 5785 5787 5790 5793 5795 5798 5801 5804 5807 5810 5813 5816 5819 5822 5825 5828 5831 5834 5837 5839 5842 5844 5846 5848 5850 5852
5799 5797 5795 5793 5790 5788 5786 5785 5783 5782 5781 5781 5780 5780 5781 5782 5783 5785 5786 5788 5791 5793 5796 5798 5801 5804 5807 5809 5812 5815 5817 5820 5823 5826 5828 5831 5833 5835 5838 5840 5842 5844 5845
5798 5796 5795 5793 5790 5789 5787 5785 5784 5783 5782 5781 5780 5780 5781 5781 5782 5783 5785 5786 5788 5791 5793 5795 5797 5800 5802 5805 5807 5810 5813 5815 5818 5821 5823 5825 5827 5829 5831 5833 5835 5837 5839
5797 5795 5794 5792 5790 5788 5787 5785 5784 5783 5782 5781 5781 5780 5780 5781 5781 5782 5783 5785 5786 5788 5789 5791 5793 5796 5798 5800 5803 5805 5808 5810 5812 5815 5817 5819 5821 5823 5825 5826 5828 5830 5831
5795 5793 5792 5791 5789 5788 5786 5785 5784 5783 5782 5781 5780 5780 5780 5780 5780 5781 5782 5783 5784 5785 5786 5788 5790 5792 5794 5796 5798 5800 5803 5805 5807 5809 5811 5813 5815 5816 5818 5820 5821 5823 5824
5792 5791 5790 5789 5787 5786 5785 5784 5783 5782 5781 5780 5780 5779 5779 5779 5779 5779 5780 5781 5782 5782 5783 5784 5786 5788 5789 5791 5793 5795 5797 5799 5801 5803 5805 5807 5808 5810 5811 5812 5813 5814 5815
5789 5788 5787 5786 5785 5784 5783 5782 5781 5780 5779 5779 5778 5778 5777 5777 5778 5778 5778 5779 5779 5780 5780 5781 5782 5784 5785 5787 5789 5790 5792 5794 5796 5798 5799 5800 5802 5803 5804 5805 5805 5806 5807
5784 5784 5783 5783 5782 5781 5780 5779 5779 5778 5777 5777 5776 5776 5776 5776 5775 5776 5776 5776 5777 5777 5778 5778 5779 5780 5782 5783 5784 5785 5787 5788 5789 5791 5792 5793 5794 5795 5796 5796 5797 5798 5798
5779 5779 5779 5778 5778 5777 5777 5776 5775 5775 5774 5774 5774 5773 5773 5773 5773 5773 5773 5773 5774 5774 5774 5775 5776 5777 5777 5778 5780 5781 5781 5783 5784 5785 5786 5786 5787 5788 5788 5788 5788 5788 5789
5773 5773 5773 5773 5773 5772 5772 5772 5772 5771 5771 5771 5770 5770 5770 5770 5770 5770 5770 5770 5770 5771 5771 5771 5772 5772 5773 5774 5775 5776 5776 5777 5778 5779 5779 5780 5780 5780 5780 5780 5780 5779 5779
5766 5766 5766 5766 5766 5767 5767 5767 5767 5767 5767 5766 5766 5766 5766 5766 5766 5766 5766 5766 5767 5767 5767 5767 5768 5768 5769 5769 5770 5770 5771 5771 5772 5772 5772 5773 5773 5773 5772 5772 5772 5771 5771